Location: Marsån
(66.4167°N, 22.2833°E)
Time: 11:37:06
(UTC+00:00)

Cosmos 1980 - Pass Details

Date: 24 February 2024
Orbit: 840 x 845 km, 71.0° (Epoch: 15 April)

Event Time Altitude Azimuth Distance (km) Brightness Sun altitude
Rises 19:04:40 0° 305° (NW) 3,418 8.4 -22.2°
Reaches altitude 10° 19:07:08 10° 305° (NW) 2,480 7.3 -22.4°
Maximum altitude 19:12:51 90° 22° (NNE) 855 3.6 -22.9°
Enters shadow 19:14:14 54° 127° (SE) 1,027 3.7 -23.0°
